THOR ABLESTAR DEB, 325

Orbit data source: Space-Track

THOR ABLESTAR DEB, 325 is space debris in LEO originally from a launch on Thu, 29 Jun 1961 UTC launched from the Air Force Eastern Test Range (AFETR). Debris objects in space refer to the collection of defunct objects orbiting the Earth. Examples of debris include non-operational satellites, rocket bodies, and fragments generated from explosions, collisions, or faulty payload assembly.

Loading next visibility...
Identifier
325, 1961-015DB
Orbit
LEO
Country
Flag of USUS
Related business
Manufacturer
Unknown
Mission
Spacecraft
Bus & Motor
Unknown
Mass
Unknown
Launch date (UTC)
1961-06-29 (64 years ago)
Launch vehicle
Unknown
Launch site
Air Force Eastern Test Range (AFETR)
Object type
Payload
Rocket body
Debris
Shape & HBR
Unknown
Radar Cross Section
Small (<0.1 m²)

Expand to show TLE details & history
Last TLE update: 20 hours ago

TLE from 20 hours ago
0 THOR ABLESTAR DEB
1 00325U 61015DB  25258.86832820  .00000598  00000-0  29849-3 0  9999
2 00325  66.9129  86.6810 0063412 241.1435 118.3288 14.22472980294139
Epoch: 2025-09-15T20:50Z
TLE epoch observation values (Epoch: 2025-09-15T20:50:23.556Z)
Latitude
0.00001°
Longitude
139.01605°
Altitude
840.994 km
Speed
7.421 km/s
True Right ascension
05h 46m 43s
True Declination
0° 00' 00"
Sunlit
Object was in daylight at epoch
Visualization orbit readout
Latitude
Unknown
Longitude
Unknown
Altitude
Unknown
Speed
Unknown
Apparent Right ascension
Unknown
Apparent Declination
Unknown
Sunlit
N/A
Visualization observer readout
Local Sidereal Time
09:42:15
Azimuth
Unknown
Elevation
Unknown
Doppler factor
Unknown
Orbital elements
Apogee altitude
860.973 km
Perigee altitude
769.742 km
Semi-major axis
7,193.494 km
Eccentricity
0.00634
Inclination
66.9129°
RAAN
86.681°
Arg. of periapsis
241.1435°
True anomaly
118.96601°
Mean anomaly
118.3288°
Eccentric anomaly
118.64765°
Mean motion
3.5574 °/min
Orbital period
101.2 mins
BSTAR
0.00029849
Loading maneuver chart data...
Computing Atmospheric mass density...

Documentation

Showing up to 5 results
|